ボアッティーニ彗星

C/2008 J1 ( Boattini )

English version
Home page
Updated on April 11, 2009

---------------------------------------------------------------------

・ プロフィール

発見日 2008年5月2日
発見光度 14.2等
発見者 A. Boattini (Catalina Sky Survey)

・ 写真集

・ 軌道要素

The following orbital elements are taken from MPC 65054:

Epoch 2008 Aug. 2.0 TT = JDT 2454680.5
T 2008 July 13.2614 TT                                  MPC
q   1.724295             (2000.0)            P               Q
z  +0.006022       Peri.   68.1226      +0.4602495      +0.1205294
 +/-0.000001       Node   273.4197      -0.6425054      +0.7289323
e   0.989617       Incl.   61.7800      +0.6126640      +0.6738920
From 1521 observations 2008 May 2-2009 Jan. 22, mean residual 0".5.

・ 星図

・ 光度変化

        m1 = 2.2 + 5 logΔ + 30   log r(t - 15)  [   ,190]  (              〜2009年 1月19日)
        m1 = 8.5 + 5 logΔ + 15.0 log r          [190,   ]  (2009年 1月19日〜              )

---------------------------------------------------------------------

軌道要素はMPCのEphemerides and Orbital Elementsに掲載されたものです。
星図はステラナビゲータ Ver.8 (アストロアーツ) で作成したものです。
光度グラフはComet for Windowsで作成したものです。

---------------------------------------------------------------------

Copyright(C) Seiichi Yoshida (comet@aerith.net). All rights reserved.